Jefferson, NC

5:00 PM EDT on July 22, 2019 (GMT -0400)
Ashe County

Weather History for KGEV - May, 2019

Change the Weather History Date:

Thursday, May 30, 2019

  Actual Average Record
Temperature  
Mean Temperature 75 °F -  
Max Temperature 81 °F 72 °F 84 °F (1982)
Min Temperature 68 °F 50 °F 39 °F (1979)
Cooling Degree Days 10    
Growing Degree Days 25 (Base 50)    
Moisture  
Dew Point 55 °F    
Average Humidity 52    
Maximum Humidity 66    
Minimum Humidity 37    
Precipitation  
Precipitation 0.00 in - - ()
Sea Level Pressure  
Sea Level Pressure 30.00 in    
Wind  
Wind Speed 7 mph (West)    
Max Wind Speed 18 mph    
Max Gust Speed 32 mph    
Visibility 10 miles    
Events      
Averages and records for this station are not official NWS values.
T = Trace of Precipitation, MM = Missing Value Source: NWS Daily Summary

Daily Weather History Graph

Daily Weather History Graph

Search for Another Location

Airport or City:

Astronomy

May. 30, 2019 Rise Set
Actual Time 6:09 AM EDT 8:36 PM EDT
Civil Twilight 5:40 AM EDT 9:06 PM EDT
Nautical Twilight 5:03 AM EDT 9:43 PM EDT
Astronomical Twilight 4:22 AM EDT 10:24 PM EDT
Moon 4:05 AM EDT (5/30) 4:51 PM EDT (5/30)
Length of Visible Light 15h 26m
Length of Day
14h 26m
Waning Crescent, 15% of the Moon is Illuminated
May 30
Waning Crescent
Jun 3
New
Jun 10
First Quarter
Jun 17
Full
Jun 25
Last Quarter

Hourly Weather History & Observations

Time (EDT) Temp. Heat Index Dew Point Humidity Pressure Visibility Wind Dir Wind Speed Gust Speed Precip Events Conditions
12:05 AM 69.3 °F - 52.3 °F 55% 30.03 in 10.0 mi Calm Calm - N/A   Clear
12:25 AM 71.6 °F - 52.3 °F 51% 30.03 in 10.0 mi West 3.5 mph - N/A   Clear
12:45 AM 71.8 °F - 53.1 °F 52% 30.03 in 10.0 mi West 3.5 mph - N/A   Clear
1:05 AM 71.1 °F - 53.8 °F 54% 30.03 in 10.0 mi WSW 3.5 mph - N/A   Clear
1:25 AM 71.8 °F - 54.7 °F 55% 30.03 in 10.0 mi West 4.6 mph - N/A   Clear
1:45 AM 71.6 °F - 55.4 °F 57% 30.03 in 10.0 mi West 3.5 mph - N/A   Clear
2:05 AM 71.2 °F - 55.4 °F 57% 30.03 in 10.0 mi Calm Calm - N/A   Clear
2:25 AM 70.9 °F - 55.8 °F 59% 30.02 in 10.0 mi West 4.6 mph - N/A   Clear
2:45 AM 70.7 °F - 55.6 °F 59% 30.02 in 10.0 mi West 5.8 mph - N/A   Clear
3:05 AM 70.5 °F - 55.6 °F 59% 30.02 in 10.0 mi West 3.5 mph - N/A   Scattered Clouds
3:25 AM 70.9 °F - 55.6 °F 58% 30.01 in 10.0 mi WSW 5.8 mph - N/A   Clear
3:45 AM 70.2 °F - 55.6 °F 60% 30.01 in 10.0 mi West 4.6 mph - N/A   Clear
4:05 AM 70.0 °F - 56.1 °F 61% 30.00 in 10.0 mi West 5.8 mph - N/A   Clear
4:25 AM 70.5 °F - 56.3 °F 61% 30.00 in 10.0 mi West 6.9 mph - N/A   Clear
4:45 AM 70.0 °F - 56.5 °F 62% 30.01 in 10.0 mi WSW 3.5 mph - N/A   Clear
5:05 AM 70.0 °F - 56.5 °F 62% 30.01 in 10.0 mi West 9.2 mph - N/A   Clear
5:25 AM 70.0 °F - 56.8 °F 63% 30.01 in 10.0 mi West 5.8 mph - N/A   Clear
5:45 AM 70.0 °F - 57.2 °F 64% 30.00 in 10.0 mi West 8.1 mph - N/A   Clear
6:05 AM 70.2 °F - 57.4 °F 64% 30.00 in 10.0 mi West 13.8 mph 19.6 mph N/A   Clear
6:25 AM 69.8 °F - 57.6 °F 65% 30.01 in 10.0 mi West 12.7 mph 17.3 mph N/A   Clear
6:45 AM 70.0 °F - 58.1 °F 66% 30.02 in 10.0 mi West 12.7 mph 17.3 mph N/A   Clear
7:05 AM 70.2 °F - 57.7 °F 65% 30.02 in 10.0 mi West 8.1 mph - N/A   Clear
7:25 AM 70.9 °F - 57.4 °F 62% 30.03 in 10.0 mi West 8.1 mph - N/A   Clear
7:45 AM 71.1 °F - 56.8 °F 61% 30.03 in 10.0 mi West 11.5 mph 18.4 mph N/A   Scattered Clouds
8:05 AM 71.8 °F - 56.1 °F 58% 30.03 in 10.0 mi WSW 13.8 mph 21.9 mph N/A   Scattered Clouds
8:25 AM 72.0 °F - 55.0 °F 55% 30.03 in 10.0 mi WSW 11.5 mph 21.9 mph N/A   Scattered Clouds
8:45 AM 72.7 °F - 54.7 °F 53% 30.03 in 10.0 mi WSW 11.5 mph 19.6 mph N/A   Scattered Clouds
9:05 AM 73.4 °F - 54.3 °F 51% 30.03 in 10.0 mi WSW 15.0 mph 25.3 mph N/A   Scattered Clouds
9:25 AM 72.9 °F - 54.7 °F 53% 30.02 in 10.0 mi SSW 10.4 mph 18.4 mph N/A   Scattered Clouds
9:45 AM 73.0 °F - 53.6 °F 50% 30.02 in 10.0 mi WSW 9.2 mph 16.1 mph N/A   Scattered Clouds
10:05 AM 74.5 °F - 53.2 °F 47% 30.02 in 10.0 mi WSW 10.4 mph 26.5 mph N/A   Clear
10:25 AM 75.2 °F - 52.7 °F 45% 30.02 in 10.0 mi WSW 15.0 mph 21.9 mph N/A   Clear
10:45 AM 73.8 °F - 52.5 °F 47% 30.02 in 10.0 mi WSW 15.0 mph 25.3 mph N/A   Clear
11:05 AM 74.1 °F - 52.3 °F 46% 30.03 in 10.0 mi West 15.0 mph 23.0 mph N/A   Scattered Clouds
11:25 AM 75.2 °F - 52.2 °F 44% 30.02 in 10.0 mi West 18.4 mph 32.2 mph N/A   Clear
11:45 AM 74.5 °F - 53.2 °F 47% 30.03 in 10.0 mi West 11.5 mph 27.6 mph N/A   Clear
12:05 PM 75.9 °F - 53.1 °F 45% 30.03 in 10.0 mi West 13.8 mph 25.3 mph N/A   Clear
12:25 PM 76.8 °F - 53.2 °F 44% 30.03 in 10.0 mi West 16.1 mph 25.3 mph N/A   Clear
12:45 PM 75.9 °F - 53.4 °F 45% 30.02 in 10.0 mi West 11.5 mph 21.9 mph N/A   Clear
1:05 PM 77.2 °F - 52.3 °F 42% 30.02 in 10.0 mi West 13.8 mph 21.9 mph N/A   Clear
1:25 PM 77.5 °F - 50.9 °F 39% 30.02 in 10.0 mi West 16.1 mph 25.3 mph N/A   Clear
1:45 PM 76.5 °F - 52.2 °F 43% 30.02 in 10.0 mi SW 6.9 mph 19.6 mph N/A   Scattered Clouds
2:05 PM 77.2 °F - 51.1 °F 40% 30.01 in 10.0 mi West 11.5 mph 23.0 mph N/A   Clear
2:25 PM 79.3 °F - 50.9 °F 37% 30.00 in 10.0 mi West 11.5 mph - N/A   Clear
2:45 PM 78.3 °F - 52.9 °F 41% 29.99 in 10.0 mi WSW 4.6 mph - N/A   Clear
3:05 PM 79.0 °F - 53.6 °F 41% 29.98 in 10.0 mi Calm Calm - N/A   Clear
3:25 PM 80.1 °F - 52.3 °F 38% 29.97 in 10.0 mi SW 8.1 mph 20.7 mph N/A   Clear
3:45 PM 80.8 °F 80.4 °F 53.8 °F 39% 29.96 in 10.0 mi SSW 3.5 mph - N/A   Scattered Clouds
4:05 PM 81.9 °F 81.4 °F 55.8 °F 41% 29.96 in 10.0 mi South 4.6 mph - N/A   Scattered Clouds
4:25 PM 80.8 °F - 52.0 °F 37% 29.95 in 10.0 mi WSW 10.4 mph 16.1 mph N/A   Clear
4:45 PM 80.2 °F - 52.3 °F 38% 29.95 in 10.0 mi West 9.2 mph - N/A   Scattered Clouds
5:25 PM 80.8 °F 80.8 °F 56.7 °F 43% 29.95 in 10.0 mi West 8.1 mph - N/A   Scattered Clouds
5:45 PM 79.7 °F - 57.4 °F 46% 29.95 in 10.0 mi WNW 10.4 mph - N/A   Scattered Clouds
6:05 PM 80.4 °F 80.7 °F 57.2 °F 45% 29.95 in 10.0 mi West 9.2 mph - N/A   Scattered Clouds
6:25 PM 78.1 °F - 58.1 °F 50% 29.95 in 10.0 mi WNW 10.4 mph 17.3 mph N/A   Scattered Clouds
6:45 PM 77.9 °F - 57.9 °F 50% 29.95 in 10.0 mi West 10.4 mph - N/A   Scattered Clouds
7:05 PM 77.9 °F - 58.3 °F 51% 29.95 in 10.0 mi West 11.5 mph 16.1 mph N/A   Clear
7:25 PM 76.8 °F - 58.3 °F 53% 29.95 in 10.0 mi WNW 11.5 mph 20.7 mph N/A   Clear
7:45 PM 76.1 °F - 57.2 °F 52% 29.95 in 10.0 mi WNW 13.8 mph 21.9 mph N/A   Clear
8:05 PM 75.2 °F - 55.6 °F 50% 29.95 in 10.0 mi WNW 15.0 mph 20.7 mph N/A   Clear
8:25 PM 74.3 °F - 55.8 °F 52% 29.95 in 10.0 mi West 12.7 mph - N/A   Clear
8:45 PM 73.9 °F - 55.8 °F 53% 29.95 in 10.0 mi West 13.8 mph 18.4 mph N/A   Clear
9:05 PM 73.4 °F - 55.2 °F 53% 29.95 in 10.0 mi West 13.8 mph 20.7 mph N/A   Clear
9:25 PM 72.7 °F - 55.4 °F 55% 29.96 in 10.0 mi WNW 8.1 mph - N/A   Clear
9:45 PM 72.1 °F - 55.2 °F 55% 29.97 in 10.0 mi WNW 8.1 mph - N/A   Clear
10:05 PM 71.6 °F - 55.4 °F 57% 29.97 in 10.0 mi West 10.4 mph - N/A   Clear
10:25 PM 71.6 °F - 55.9 °F 58% 29.97 in 10.0 mi West 5.8 mph - N/A   Clear
10:45 PM 70.9 °F - 56.1 °F 59% 29.98 in 10.0 mi WSW 3.5 mph - N/A   Clear
11:05 PM 69.8 °F - 56.3 °F 62% 29.98 in 10.0 mi Calm Calm - N/A   Clear
11:25 PM 69.1 °F - 56.3 °F 64% 29.98 in 10.0 mi NW 3.5 mph - N/A   Clear
11:45 PM 68.0 °F - 56.3 °F 66% 29.98 in 10.0 mi Calm Calm - N/A   Clear